Time,TemperatureF,DewpointF,PressureIn,WindDirection,WindDirectionDegrees,WindSpeedMPH,WindSpeedGustMPH,Humidity,HourlyPrecipIn,Conditions,Clouds,dailyrainin,SoftwareType,DateUTC
2013-02-06 00:02:00,25.0,23.0,-100.00,WSW,254,0.0,1.0,89,0.00,,,-99.99,,2013-02-06 05:02:00,
2013-02-06 00:12:00,26.0,25.0,-100.00,SSW,193,0.0,1.0,90,0.00,,,-99.99,,2013-02-06 05:12:00,
2013-02-06 00:22:00,26.0,25.0,-100.00,West,266,0.0,1.0,90,0.00,,,-99.99,,2013-02-06 05:22:00,
2013-02-06 00:32:00,26.0,25.0,-100.00,West,266,0.0,1.0,90,0.00,,,-99.99,,2013-02-06 05:32:00,
2013-02-06 00:42:00,26.0,25.0,-100.00,SW,216,0.0,1.0,90,0.00,,,-99.99,,2013-02-06 05:42:00,
2013-02-06 00:53:00,26.0,25.0,-100.00,WNW,296,0.0,1.0,90,0.00,,,-99.99,,2013-02-06 05:53:00,
2013-02-06 01:01:00,26.0,25.0,-100.00,WNW,288,0.0,1.0,91,0.00,,,-99.99,,2013-02-06 06:01:00,
2013-02-06 01:11:00,26.0,25.0,-100.00,West,261,0.0,1.0,91,0.00,,,-99.99,,2013-02-06 06:11:00,
2013-02-06 01:21:00,26.0,25.0,-100.00,WSW,254,0.0,1.0,90,0.00,,,-99.99,,2013-02-06 06:21:00,
2013-02-06 01:32:00,26.0,25.0,-100.00,WNW,283,0.0,1.0,90,0.00,,,-99.99,,2013-02-06 06:32:00,
2013-02-06 01:42:00,26.0,25.0,-100.00,West,268,0.0,1.0,90,0.00,,,-99.99,,2013-02-06 06:42:00,
2013-02-06 01:51:00,26.0,25.0,-100.00,West,269,0.0,1.0,90,0.00,,,-99.99,,2013-02-06 06:51:00,
2013-02-06 02:02:00,27.0,25.0,-100.00,West,262,0.0,1.0,89,0.00,,,-99.99,,2013-02-06 07:02:00,
2013-02-06 02:11:00,26.0,25.0,-100.00,WSW,241,0.0,1.0,89,0.00,,,-99.99,,2013-02-06 07:11:00,
2013-02-06 02:22:00,26.0,25.0,-100.00,West,262,0.0,1.0,89,0.00,,,-99.99,,2013-02-06 07:22:00,
2013-02-06 02:32:00,26.0,25.0,-100.00,West,268,0.0,1.0,89,0.00,,,-99.99,,2013-02-06 07:32:00,
2013-02-06 02:42:00,27.0,25.0,-100.00,WSW,248,0.0,1.0,89,0.00,,,-99.99,,2013-02-06 07:42:00,
2013-02-06 02:51:00,27.0,25.0,-100.00,West,271,0.0,1.0,89,0.00,,,-99.99,,2013-02-06 07:51:00,
2013-02-06 03:01:00,27.0,25.0,-100.00,West,271,0.0,1.0,89,0.00,,,-99.99,,2013-02-06 08:01:00,
2013-02-06 03:11:00,27.0,25.0,-100.00,West,266,0.0,1.0,89,0.00,,,-99.99,,2013-02-06 08:11:00,
2013-02-06 03:21:00,27.0,25.0,-100.00,West,265,0.0,1.0,90,0.00,,,-99.99,,2013-02-06 08:21:00,
2013-02-06 03:32:00,27.0,25.0,-100.00,West,273,0.0,0.0,91,0.00,,,-99.99,,2013-02-06 08:32:00,
2013-02-06 03:42:00,27.0,25.0,-100.00,West,262,0.0,0.0,91,0.00,,,-99.99,,2013-02-06 08:42:00,
2013-02-06 03:53:00,27.0,25.0,-100.00,WSW,258,0.0,0.0,90,0.00,,,-99.99,,2013-02-06 08:53:00,
2013-02-06 04:02:00,27.0,25.0,-100.00,WNW,292,0.0,0.0,90,0.00,,,-99.99,,2013-02-06 09:02:00,
2013-02-06 04:11:00,28.0,27.0,-100.00,West,261,1.0,1.0,90,0.00,,,-99.99,,2013-02-06 09:11:00,
2013-02-06 04:21:00,28.0,27.0,-100.00,West,268,0.0,1.0,90,0.00,,,-99.99,,2013-02-06 09:21:00,
2013-02-06 04:32:00,28.0,27.0,-100.00,West,264,1.0,1.0,90,0.00,,,-99.99,,2013-02-06 09:32:00,
2013-02-06 04:42:00,28.0,27.0,-100.00,West,271,2.0,4.0,89,0.00,,,-99.99,,2013-02-06 09:42:00,
2013-02-06 04:50:00,28.0,27.0,-100.00,WNW,286,2.0,4.0,88,0.00,,,-99.99,,2013-02-06 09:50:00,
2013-02-06 04:52:00,28.0,27.0,-100.00,West,264,1.0,4.0,89,0.00,,,-99.99,,2013-02-06 09:52:00,
2013-02-06 05:01:00,29.0,27.0,-100.00,West,279,1.0,4.0,88,0.00,,,-99.99,,2013-02-06 10:01:00,
2013-02-06 05:11:00,29.0,27.0,-100.00,West,279,1.0,4.0,88,0.00,,,-99.99,,2013-02-06 10:11:00,
2013-02-06 05:21:00,28.0,27.0,-100.00,WNW,286,2.0,4.0,88,0.00,,,-99.99,,2013-02-06 10:21:00,
2013-02-06 05:32:00,28.0,27.0,-100.00,WNW,286,2.0,4.0,88,0.00,,,-99.99,,2013-02-06 10:32:00,
2013-02-06 05:42:00,28.0,27.0,-100.00,WNW,286,2.0,4.0,88,0.00,,,-99.99,,2013-02-06 10:42:00,
2013-02-06 10:11:00,24.0,18.0,-100.00,WSW,252,1.0,1.0,75,2.83,,,-99.99,,2013-02-06 15:11:00,
2013-02-06 10:21:00,27.0,19.0,-100.00,West,265,1.0,1.0,69,1.14,,,-99.99,,2013-02-06 15:21:00,
2013-02-06 10:32:00,29.0,19.0,-100.00,WSW,254,2.0,2.0,64,0.00,,,-99.99,,2013-02-06 15:32:00,
2013-02-06 10:42:00,26.0,18.0,-100.00,West,264,2.0,2.0,67,0.00,,,-99.99,,2013-02-06 15:42:00,
2013-02-06 10:52:00,26.0,16.0,-100.00,WSW,254,1.0,2.0,64,0.00,,,-99.99,,2013-02-06 15:52:00,
2013-02-06 11:01:00,28.0,16.0,-100.00,SSW,207,0.0,2.0,58,0.00,,,-99.99,,2013-02-06 16:01:00,
2013-02-06 11:11:00,29.0,16.0,-100.00,West,276,0.0,2.0,54,0.00,,,-99.99,,2013-02-06 16:11:00,
2013-02-06 11:21:00,29.0,16.0,-100.00,West,280,0.0,2.0,54,0.00,,,-99.99,,2013-02-06 16:21:00,
2013-02-06 11:32:00,30.0,16.0,-100.00,West,271,0.0,2.0,53,0.00,,,-99.99,,2013-02-06 16:32:00,
2013-02-06 11:42:00,29.0,14.0,-100.00,WNW,285,0.0,2.0,50,0.00,,,-99.99,,2013-02-06 16:42:00,
2013-02-06 11:52:00,32.0,16.0,-100.00,WNW,285,1.0,2.0,47,0.00,,,-99.99,,2013-02-06 16:52:00,
2013-02-06 12:02:00,30.0,12.0,-100.00,SW,235,0.0,2.0,46,0.00,,,-99.99,,2013-02-06 17:02:00,
2013-02-06 12:12:00,31.0,14.0,-100.00,WNW,283,1.0,2.0,46,0.00,,,-99.99,,2013-02-06 17:12:00,
2013-02-06 12:22:00,31.0,12.0,-100.00,West,273,1.0,2.0,45,0.00,,,-99.99,,2013-02-06 17:22:00,
2013-02-06 12:32:00,36.0,12.0,-100.00,NNE,14,0.0,2.0,37,0.00,,,-99.99,,2013-02-06 17:32:00,
2013-02-06 12:42:00,32.0,14.0,-100.00,NW,317,0.0,2.0,46,0.00,,,-99.99,,2013-02-06 17:42:00,
2013-02-06 12:52:00,33.0,16.0,-100.00,NW,321,0.0,2.0,46,0.00,,,-99.99,,2013-02-06 17:52:00,
2013-02-06 13:02:00,34.0,12.0,-100.00,WNW,286,1.0,2.0,38,0.00,,,-99.99,,2013-02-06 18:02:00,
2013-02-06 13:12:00,37.0,14.0,-100.00,NNW,347,0.0,2.0,36,0.00,,,-99.99,,2013-02-06 18:12:00,
2013-02-06 13:23:00,31.0,14.0,-100.00,WNW,286,0.0,2.0,45,0.00,,,-99.99,,2013-02-06 18:23:00,
2013-02-06 13:32:00,32.0,12.0,-100.00,WNW,295,0.0,2.0,42,0.00,,,-99.99,,2013-02-06 18:32:00,
2013-02-06 13:42:00,33.0,12.0,-100.00,WNW,283,0.0,2.0,41,0.00,,,-99.99,,2013-02-06 18:42:00,
2013-02-06 13:52:00,32.0,12.0,-100.00,West,279,0.0,2.0,42,0.00,,,-99.99,,2013-02-06 18:52:00,
2013-02-06 14:02:00,32.0,14.0,-100.00,West,265,0.0,2.0,45,0.00,,,-99.99,,2013-02-06 19:02:00,
2013-02-06 14:11:00,32.0,12.0,-100.00,WNW,283,0.0,2.0,42,0.00,,,-99.99,,2013-02-06 19:11:00,
2013-02-06 14:21:00,31.0,14.0,-100.00,NW,319,0.0,2.0,45,0.00,,,-99.99,,2013-02-06 19:21:00,
2013-02-06 14:32:00,31.0,10.0,-100.00,West,275,1.0,2.0,41,0.00,,,-99.99,,2013-02-06 19:32:00,
2013-02-06 14:42:00,33.0,12.0,-100.00,NW,310,0.0,2.0,42,0.00,,,-99.99,,2013-02-06 19:42:00,
2013-02-06 14:52:00,33.0,14.0,-100.00,SSW,201,0.0,2.0,44,0.00,,,-99.99,,2013-02-06 19:52:00,
2013-02-06 15:01:00,32.0,12.0,-100.00,WSW,258,0.0,2.0,41,0.00,,,-99.99,,2013-02-06 20:01:00,
2013-02-06 15:11:00,31.0,12.0,-100.00,West,280,1.0,2.0,44,0.00,,,-99.99,,2013-02-06 20:11:00,
2013-02-06 15:21:00,29.0,12.0,-100.00,WNW,285,0.0,2.0,45,0.00,,,-99.99,,2013-02-06 20:21:00,
2013-02-06 15:32:00,29.0,12.0,-100.00,NNE,14,0.0,2.0,46,0.00,,,-99.99,,2013-02-06 20:32:00,
2013-02-06 15:42:00,29.0,12.0,-100.00,SW,223,0.0,2.0,47,0.00,,,-99.99,,2013-02-06 20:42:00,
2013-02-06 15:52:00,29.0,12.0,-100.00,NE,49,0.0,2.0,47,0.00,,,-99.99,,2013-02-06 20:52:00,
2013-02-06 16:02:00,29.0,12.0,-100.00,NNW,336,0.0,2.0,47,0.00,,,-99.99,,2013-02-06 21:02:00,
2013-02-06 16:11:00,30.0,14.0,-100.00,NNE,19,0.0,2.0,50,0.00,,,-99.99,,2013-02-06 21:11:00,
2013-02-06 16:21:00,30.0,16.0,-100.00,WNW,290,0.0,2.0,51,0.00,,,-99.99,,2013-02-06 21:21:00,
2013-02-06 16:32:00,29.0,12.0,-100.00,West,265,0.0,2.0,47,0.00,,,-99.99,,2013-02-06 21:32:00,
2013-02-06 16:42:00,30.0,14.0,-100.00,NE,56,0.0,2.0,49,0.00,,,-99.99,,2013-02-06 21:42:00,
2013-02-06 16:51:00,30.0,14.0,-100.00,North,352,0.0,2.0,49,0.00,,,-99.99,,2013-02-06 21:51:00,
2013-02-06 17:01:00,29.0,14.0,-100.00,NW,320,0.0,2.0,51,0.00,,,-99.99,,2013-02-06 22:01:00,
2013-02-06 17:11:00,28.0,12.0,-100.00,WNW,296,0.0,2.0,49,0.00,,,-99.99,,2013-02-06 22:11:00,
2013-02-06 17:21:00,29.0,14.0,-100.00,ENE,59,0.0,2.0,51,0.00,,,-99.99,,2013-02-06 22:21:00,
2013-02-06 17:32:00,29.0,14.0,-100.00,NE,40,0.0,2.0,51,0.00,,,-99.99,,2013-02-06 22:32:00,
2013-02-06 17:42:00,29.0,14.0,-100.00,ENE,74,0.0,2.0,53,0.00,,,-99.99,,2013-02-06 22:42:00,
2013-02-06 17:52:00,28.0,14.0,-100.00,SSE,152,0.0,2.0,53,0.00,,,-99.99,,2013-02-06 22:52:00,
2013-02-06 18:01:00,27.0,14.0,-100.00,SE,125,0.0,2.0,54,0.00,,,-99.99,,2013-02-06 23:01:00,
2013-02-06 18:11:00,25.0,12.0,-100.00,SSE,158,0.0,2.0,56,0.00,,,-99.99,,2013-02-06 23:11:00,
2013-02-06 18:21:00,25.0,14.0,-100.00,ESE,103,0.0,2.0,59,0.00,,,-99.99,,2013-02-06 23:21:00,
2013-02-06 18:32:00,25.0,14.0,-100.00,East,81,1.0,2.0,58,0.00,,,-99.99,,2013-02-06 23:32:00,
2013-02-06 18:42:00,23.0,12.0,-100.00,East,101,1.0,2.0,62,0.00,,,-99.99,,2013-02-06 23:42:00,
2013-02-06 18:52:00,22.0,12.0,-100.00,East,86,0.0,2.0,66,0.00,,,-99.99,,2013-02-06 23:52:00,
2013-02-06 19:02:00,24.0,14.0,-100.00,NE,48,0.0,2.0,62,0.00,,,-99.99,,2013-02-07 00:02:00,
2013-02-06 19:11:00,24.0,12.0,-100.00,ESE,121,0.0,2.0,60,0.00,,,-99.99,,2013-02-07 00:11:00,
2013-02-06 19:21:00,19.0,12.0,-100.00,ESE,114,0.0,2.0,68,0.00,,,-99.99,,2013-02-07 00:21:00,
2013-02-06 19:32:00,19.0,12.0,-100.00,East,91,0.0,2.0,69,0.00,,,-99.99,,2013-02-07 00:32:00,
2013-02-06 19:42:00,21.0,14.0,-100.00,East,90,0.0,2.0,69,0.00,,,-99.99,,2013-02-07 00:42:00,
2013-02-06 19:52:00,21.0,14.0,-100.00,SE,127,0.0,2.0,68,0.00,,,-99.99,,2013-02-07 00:52:00,
2013-02-06 20:01:00,20.0,14.0,-100.00,NNE,33,0.0,2.0,72,0.00,,,-99.99,,2013-02-07 01:01:00,
2013-02-06 20:11:00,19.0,14.0,-100.00,NE,52,0.0,2.0,75,0.00,,,-99.99,,2013-02-07 01:11:00,
2013-02-06 20:21:00,17.0,12.0,-100.00,SE,134,0.0,2.0,76,0.00,,,-99.99,,2013-02-07 01:21:00,
2013-02-06 20:32:00,19.0,12.0,-100.00,SE,128,0.0,2.0,72,0.00,,,-99.99,,2013-02-07 01:32:00,
2013-02-06 20:42:00,17.0,10.0,-100.00,ESE,115,0.0,2.0,73,0.00,,,-99.99,,2013-02-07 01:42:00,
2013-02-06 20:52:00,17.0,12.0,-100.00,SE,134,0.0,2.0,75,0.00,,,-99.99,,2013-02-07 01:52:00,
2013-02-06 21:01:00,17.0,12.0,-100.00,SE,134,0.0,2.0,75,0.00,,,-99.99,,2013-02-07 02:01:00,
2013-02-06 21:12:00,18.0,12.0,-100.00,SE,125,0.0,2.0,73,0.00,,,-99.99,,2013-02-07 02:12:00,
2013-02-06 21:21:00,17.0,10.0,-100.00,SE,134,0.0,2.0,73,0.00,,,-99.99,,2013-02-07 02:21:00,
2013-02-06 21:32:00,17.0,12.0,-100.00,ESE,107,0.0,2.0,75,0.00,,,-99.99,,2013-02-07 02:32:00,
2013-02-06 21:42:00,17.0,12.0,-100.00,ESE,107,0.0,2.0,75,0.00,,,-99.99,,2013-02-07 02:42:00,
2013-02-06 21:51:00,17.0,12.0,-100.00,ESE,107,0.0,2.0,75,0.00,,,-99.99,,2013-02-07 02:51:00,
2013-02-06 22:02:00,19.0,14.0,-100.00,East,88,0.0,2.0,76,0.00,,,-99.99,,2013-02-07 03:02:00,
2013-02-06 22:11:00,21.0,14.0,-100.00,ENE,74,0.0,2.0,72,0.00,,,-99.99,,2013-02-07 03:11:00,
2013-02-06 22:21:00,18.0,10.0,-100.00,SE,128,0.0,2.0,71,0.00,,,-99.99,,2013-02-07 03:21:00,
2013-02-06 22:32:00,13.0,9.0,-100.00,East,90,0.0,2.0,77,0.00,,,-99.99,,2013-02-07 03:32:00,
2013-02-06 22:42:00,13.0,9.0,-100.00,East,90,0.0,2.0,77,0.00,,,-99.99,,2013-02-07 03:42:00,
2013-02-06 22:52:00,20.0,14.0,-100.00,East,87,1.0,2.0,75,0.00,,,-99.99,,2013-02-07 03:52:00,
2013-02-06 23:01:00,20.0,14.0,-100.00,East,91,1.0,2.0,75,0.00,,,-99.99,,2013-02-07 04:01:00,
2013-02-06 23:11:00,20.0,14.0,-100.00,East,83,1.0,2.0,72,0.00,,,-99.99,,2013-02-07 04:11:00,
2013-02-06 23:22:00,19.0,10.0,-100.00,East,83,2.0,2.0,68,0.00,,,-99.99,,2013-02-07 04:22:00,
2013-02-06 23:32:00,21.0,14.0,-100.00,East,93,1.0,2.0,69,0.00,,,-99.99,,2013-02-07 04:32:00,
2013-02-06 23:42:00,17.0,10.0,-100.00,ESE,103,2.0,4.0,73,0.00,,,-99.99,,2013-02-07 04:42:00,
2013-02-06 23:53:00,18.0,10.0,-100.00,East,88,1.0,4.0,69,0.00,,,-99.99,,2013-02-07 04:53:00,